TimeMDT,TemperatureF,Dew PointF,Humidity,Sea Level PressureIn,VisibilityMPH,Wind Direction,Wind SpeedMPH,Gust SpeedMPH,PrecipitationIn,Events,Conditions,WindDirDegrees,DateUTC
12:12 AM,30.2,23.0,75,30.27,10.0,North,4.6,-,N/A,,Clear,10,2013-10-13 06:12:00
12:32 AM,30.2,23.0,75,30.28,10.0,NNE,5.8,-,N/A,,Clear,20,2013-10-13 06:32:00
12:52 AM,32.0,24.8,75,30.27,10.0,NE,4.6,-,N/A,,Clear,40,2013-10-13 06:52:00
1:12 AM,32.0,23.0,69,30.27,10.0,NNW,6.9,-,N/A,,Scattered Clouds,330,2013-10-13 07:12:00
1:32 AM,30.2,23.0,75,30.28,10.0,NNW,6.9,-,N/A,,Mostly Cloudy,340,2013-10-13 07:32:00
1:51 AM,32.0,23.0,69,30.27,10.0,NNW,3.5,-,N/A,,Mostly Cloudy,340,2013-10-13 07:51:00
2:12 AM,32.0,24.8,75,30.27,10.0,ENE,3.5,-,N/A,,Mostly Cloudy,60,2013-10-13 08:12:00
2:32 AM,30.2,23.0,75,30.27,10.0,NW,6.9,-,N/A,,Overcast,320,2013-10-13 08:32:00
2:52 AM,33.8,24.8,70,30.27,10.0,NNE,3.5,-,N/A,,Overcast,30,2013-10-13 08:52:00
3:12 AM,33.8,26.6,75,30.26,10.0,WNW,4.6,-,N/A,,Overcast,300,2013-10-13 09:12:00
3:32 AM,33.8,24.8,70,30.26,10.0,WNW,4.6,-,N/A,,Overcast,290,2013-10-13 09:32:00
3:52 AM,33.8,24.8,70,30.26,10.0,NNW,4.6,-,N/A,,Overcast,340,2013-10-13 09:52:00
4:11 AM,35.6,26.6,70,30.25,10.0,NNE,3.5,-,N/A,,Overcast,30,2013-10-13 10:11:00
4:32 AM,33.8,26.6,75,30.26,10.0,West,4.6,-,N/A,,Overcast,280,2013-10-13 10:32:00
4:52 AM,33.8,26.6,75,30.26,10.0,Calm,Calm,-,N/A,,Overcast,0,2013-10-13 10:52:00
5:12 AM,33.8,26.6,75,30.27,10.0,NW,3.5,-,N/A,,Overcast,320,2013-10-13 11:12:00
5:32 AM,35.6,26.6,70,30.27,10.0,NW,6.9,-,N/A,,Overcast,310,2013-10-13 11:32:00
5:52 AM,33.8,28.4,81,30.26,10.0,NW,3.5,-,N/A,,Mostly Cloudy,310,2013-10-13 11:52:00
6:12 AM,33.8,28.4,81,30.26,10.0,Calm,Calm,-,N/A,,Mostly Cloudy,0,2013-10-13 12:12:00
6:32 AM,33.8,28.4,81,30.26,10.0,Calm,Calm,-,N/A,,Overcast,0,2013-10-13 12:32:00
6:52 AM,35.6,28.4,75,30.26,10.0,North,3.5,-,N/A,,Overcast,350,2013-10-13 12:52:00
7:12 AM,35.6,28.4,75,30.26,10.0,NNW,6.9,-,N/A,,Overcast,330,2013-10-13 13:12:00
7:32 AM,35.6,26.6,70,30.25,10.0,North,4.6,-,N/A,,Overcast,360,2013-10-13 13:32:00
7:52 AM,35.6,28.4,75,30.26,10.0,NNW,6.9,-,N/A,,Overcast,340,2013-10-13 13:52:00
8:12 AM,37.4,28.4,70,30.26,10.0,NW,6.9,-,N/A,,Overcast,320,2013-10-13 14:12:00
8:32 AM,37.4,28.4,70,30.27,10.0,NW,9.2,-,N/A,,Overcast,310,2013-10-13 14:32:00
8:52 AM,39.2,28.4,65,30.27,10.0,NW,5.8,-,N/A,,Overcast,320,2013-10-13 14:52:00
9:11 AM,41.0,28.4,61,30.27,10.0,NW,4.6,-,N/A,,Overcast,320,2013-10-13 15:11:00
9:32 AM,41.0,28.4,61,30.27,10.0,NNW,4.6,-,N/A,,Overcast,330,2013-10-13 15:32:00
9:52 AM,42.8,30.2,61,30.27,10.0,Calm,Calm,-,N/A,,Overcast,0,2013-10-13 15:52:00
10:12 AM,42.8,30.2,61,30.28,10.0,Calm,Calm,-,N/A,,Overcast,0,2013-10-13 16:12:00
10:32 AM,44.6,32.0,61,30.27,10.0,SSE,3.5,-,N/A,,Overcast,160,2013-10-13 16:32:00
10:52 AM,46.4,32.0,57,30.26,10.0,ESE,3.5,-,N/A,,Overcast,120,2013-10-13 16:52:00
11:12 AM,48.2,32.0,54,30.26,10.0,NE,3.5,-,N/A,,Overcast,50,2013-10-13 17:12:00
11:32 AM,53.6,32.0,44,30.24,10.0,SSE,10.4,-,N/A,,Overcast,150,2013-10-13 17:32:00
11:52 AM,53.6,32.0,44,30.24,10.0,SSE,9.2,-,N/A,,Overcast,160,2013-10-13 17:52:00
12:12 PM,53.6,32.0,44,30.22,10.0,SE,8.1,-,N/A,,Scattered Clouds,140,2013-10-13 18:12:00
12:32 PM,53.6,32.0,44,30.21,10.0,SSE,4.6,-,N/A,,Scattered Clouds,160,2013-10-13 18:32:00
12:52 PM,55.4,32.0,41,30.19,10.0,SSE,3.5,-,N/A,,Mostly Cloudy,160,2013-10-13 18:52:00
1:12 PM,55.4,32.0,41,30.17,10.0,East,3.5,-,N/A,,Scattered Clouds,80,2013-10-13 19:12:00
1:32 PM,55.4,28.4,36,30.16,10.0,Calm,Calm,-,N/A,,Scattered Clouds,0,2013-10-13 19:32:00
1:52 PM,57.2,30.2,36,30.14,10.0,East,11.5,-,N/A,,Mostly Cloudy,100,2013-10-13 19:52:00
2:12 PM,57.2,28.4,33,30.12,10.0,SE,5.8,-,N/A,,Overcast,130,2013-10-13 20:12:00
2:31 PM,60.8,30.2,31,30.11,10.0,South,6.9,17.3,N/A,,Mostly Cloudy,170,2013-10-13 20:31:00
2:51 PM,60.8,28.4,29,30.10,10.0,SSE,6.9,-,N/A,,Scattered Clouds,160,2013-10-13 20:51:00
3:12 PM,59.0,28.4,31,30.10,10.0,SW,5.8,-,N/A,,Scattered Clouds,230,2013-10-13 21:12:00
3:31 PM,59.0,30.2,34,30.10,10.0,South,3.5,-,N/A,,Mostly Cloudy,190,2013-10-13 21:31:00
3:52 PM,59.0,30.2,34,30.09,10.0,SW,3.5,-,N/A,,Overcast,230,2013-10-13 21:52:00
4:12 PM,59.0,30.2,34,30.08,10.0,Calm,Calm,-,N/A,,Overcast,0,2013-10-13 22:12:00
4:32 PM,59.0,28.4,31,30.08,10.0,WSW,20.7,26.5,N/A,,Mostly Cloudy,250,2013-10-13 22:32:00
4:52 PM,60.8,28.4,29,30.08,10.0,SW,11.5,16.1,N/A,,Clear,230,2013-10-13 22:52:00
5:12 PM,60.8,28.4,29,30.07,10.0,WSW,17.3,24.2,N/A,,Clear,240,2013-10-13 23:12:00
5:32 PM,57.2,28.4,33,30.08,10.0,WSW,4.6,-,N/A,,Scattered Clouds,240,2013-10-13 23:32:00
5:52 PM,57.2,28.4,33,30.09,10.0,WSW,13.8,17.3,N/A,,Scattered Clouds,240,2013-10-13 23:52:00
6:12 PM,55.4,30.2,38,30.09,10.0,SW,12.7,19.6,N/A,,Mostly Cloudy,230,2013-10-14 00:12:00
6:32 PM,53.6,32.0,44,30.09,10.0,WSW,16.1,24.2,N/A,Thunderstorm,Overcast,240,2013-10-14 00:32:00
6:52 PM,51.8,33.8,50,30.10,10.0,SW,12.7,17.3,N/A,,Mostly Cloudy,220,2013-10-14 00:52:00
7:12 PM,51.8,33.8,50,30.11,10.0,SW,12.7,-,N/A,,Scattered Clouds,220,2013-10-14 01:12:00
7:32 PM,50.0,35.6,58,30.11,10.0,SSW,18.4,26.5,N/A,Rain,Light Rain,210,2013-10-14 01:32:00
7:52 PM,48.2,35.6,62,30.11,10.0,SW,9.2,-,N/A,,Scattered Clouds,220,2013-10-14 01:52:00
8:12 PM,48.2,35.6,62,30.11,10.0,South,4.6,-,N/A,Thunderstorm,Clear,180,2013-10-14 02:12:00
8:32 PM,46.4,37.4,71,30.12,10.0,South,5.8,-,N/A,,Scattered Clouds,180,2013-10-14 02:32:00
8:52 PM,48.2,35.6,62,30.12,10.0,SW,6.9,-,N/A,Rain,Rain,230,2013-10-14 02:52:00
9:12 PM,46.4,39.2,76,30.10,10.0,WSW,3.5,-,N/A,,Mostly Cloudy,240,2013-10-14 03:12:00
9:31 PM,44.6,39.2,81,30.10,10.0,SE,9.2,-,N/A,,Scattered Clouds,130,2013-10-14 03:31:00
9:52 PM,42.8,39.2,87,30.10,10.0,East,8.1,-,N/A,,Mostly Cloudy,80,2013-10-14 03:52:00
10:12 PM,42.8,39.2,87,30.10,10.0,SE,5.8,-,N/A,,Scattered Clouds,130,2013-10-14 04:12:00
10:32 PM,41.0,37.4,87,30.09,10.0,SE,8.1,-,N/A,,Clear,140,2013-10-14 04:32:00
10:52 PM,41.0,37.4,87,30.09,10.0,East,9.2,-,N/A,,Clear,100,2013-10-14 04:52:00
11:12 PM,41.0,37.4,87,30.10,10.0,ESE,9.2,-,N/A,,Clear,120,2013-10-14 05:12:00
11:32 PM,41.0,37.4,87,30.10,10.0,ESE,11.5,-,N/A,,Clear,120,2013-10-14 05:32:00
11:52 PM,39.2,37.4,93,30.11,10.0,ESE,6.9,-,N/A,,Scattered Clouds,110,2013-10-14 05:52:00